Time,TemperatureF,DewpointF,PressureIn,WindDirection,WindDirectionDegrees,WindSpeedMPH,WindSpeedGustMPH,Humidity,HourlyPrecipIn,Conditions,Clouds,dailyrainin,SoftwareType,DateUTC
2013-03-18 00:02:00,27.2,21.0,29.91,SE,125,9.0,13.0,77,0.00,,,0.00,VWS V14.01,2013-03-18 05:02:00,
2013-03-18 00:07:00,27.2,21.0,29.90,ENE,73,11.0,13.0,77,0.00,,,0.00,VWS V14.01,2013-03-18 05:07:00,
2013-03-18 00:12:00,27.3,21.1,29.90,ESE,104,8.0,15.0,77,0.00,,,0.00,VWS V14.01,2013-03-18 05:12:00,
2013-03-18 00:17:00,27.3,21.1,29.89,SSE,147,8.0,17.0,77,0.00,,,0.00,VWS V14.01,2013-03-18 05:17:00,
2013-03-18 00:22:00,27.3,21.4,29.89,East,90,5.0,17.0,78,0.00,,,0.00,VWS V14.01,2013-03-18 05:22:00,
2013-03-18 00:27:00,27.4,21.5,29.88,East,90,6.0,17.0,78,0.00,,,0.00,VWS V14.01,2013-03-18 05:27:00,
2013-03-18 00:32:00,27.4,21.5,29.88,East,84,5.0,6.0,78,0.00,,,0.00,VWS V14.01,2013-03-18 05:32:00,
2013-03-18 00:38:00,27.5,21.5,29.87,East,100,1.0,10.0,78,0.00,,,0.00,VWS V14.01,2013-03-18 05:38:00,
2013-03-18 00:43:00,27.5,21.5,29.87,ENE,64,5.0,16.0,78,0.00,,,0.00,VWS V14.01,2013-03-18 05:43:00,
2013-03-18 00:48:00,27.6,22.0,29.86,NE,53,4.0,16.0,79,0.00,,,0.00,VWS V14.01,2013-03-18 05:48:00,
2013-03-18 00:53:00,27.7,22.0,29.85,SE,130,0.0,16.0,79,0.00,,,0.00,VWS V14.01,2013-03-18 05:53:00,
2013-03-18 00:58:00,27.8,22.1,29.85,ENE,59,7.0,16.0,79,0.00,,,0.00,VWS V14.01,2013-03-18 05:58:00,
2013-03-18 01:03:00,27.9,22.2,29.85,SE,131,2.0,13.0,79,0.00,,,0.00,VWS V14.01,2013-03-18 06:03:00,
2013-03-18 01:08:00,28.0,22.3,29.85,ENE,61,3.0,14.0,79,0.00,,,0.00,VWS V14.01,2013-03-18 06:08:00,
2013-03-18 01:13:00,28.1,22.4,29.84,East,99,5.0,14.0,79,0.00,,,0.00,VWS V14.01,2013-03-18 06:13:00,
2013-03-18 01:18:00,28.1,22.4,29.84,East,81,8.0,14.0,79,0.00,,,0.00,VWS V14.01,2013-03-18 06:18:00,
2013-03-18 01:23:00,28.2,22.5,29.84,ESE,116,0.0,14.0,79,0.00,,,0.00,VWS V14.01,2013-03-18 06:23:00,
2013-03-18 01:28:00,28.3,22.6,29.84,ENE,73,4.0,15.0,79,0.00,,,0.00,VWS V14.01,2013-03-18 06:28:00,
2013-03-18 01:33:00,28.3,22.6,29.84,NNW,342,5.0,5.0,79,0.00,,,0.00,VWS V14.01,2013-03-18 06:33:00,
2013-03-18 01:38:00,28.4,23.0,29.83,West,274,2.0,6.0,80,0.00,,,0.00,VWS V14.01,2013-03-18 06:38:00,
2013-03-18 01:44:00,28.4,23.0,29.83,North,354,2.0,12.0,80,0.00,,,0.00,VWS V14.01,2013-03-18 06:44:00,
2013-03-18 01:49:00,28.5,23.1,29.82,ENE,66,7.0,14.0,80,0.00,,,0.00,VWS V14.01,2013-03-18 06:49:00,
2013-03-18 01:54:00,28.5,22.8,29.81,ESE,122,4.0,14.0,79,0.00,,,0.00,VWS V14.01,2013-03-18 06:54:00,
2013-03-18 01:59:00,28.6,22.9,29.80,South,170,11.0,17.0,79,0.00,,,0.00,VWS V14.01,2013-03-18 06:59:00,
2013-03-18 02:04:00,28.7,23.0,29.79,ESE,108,15.0,22.0,79,0.00,,,0.00,VWS V14.01,2013-03-18 07:04:00,
2013-03-18 02:09:00,28.8,23.1,29.79,ESE,103,4.0,22.0,79,0.00,,,0.00,VWS V14.01,2013-03-18 07:09:00,
2013-03-18 02:14:00,28.8,23.1,29.79,ENE,68,2.0,22.0,79,0.00,,,0.00,VWS V14.01,2013-03-18 07:14:00,
2013-03-18 02:19:00,28.9,23.2,29.79,ESE,111,2.0,22.0,79,0.00,,,0.00,VWS V14.01,2013-03-18 07:19:00,
2013-03-18 02:24:00,28.9,23.2,29.78,East,90,5.0,22.0,79,0.00,,,0.00,VWS V14.01,2013-03-18 07:24:00,
2013-03-18 02:29:00,29.0,23.6,29.78,ESE,110,4.0,22.0,80,0.00,,,0.00,VWS V14.01,2013-03-18 07:29:00,
2013-03-18 02:34:00,29.1,23.7,29.78,SE,127,3.0,12.0,80,0.00,,,0.00,VWS V14.01,2013-03-18 07:34:00,
2013-03-18 02:39:00,29.2,23.8,29.78,NNE,13,6.0,13.0,80,0.00,,,0.00,VWS V14.01,2013-03-18 07:39:00,
2013-03-18 02:44:00,29.3,23.9,29.77,SE,143,0.0,13.0,80,0.00,,,0.00,VWS V14.01,2013-03-18 07:44:00,
2013-03-18 02:49:00,29.3,23.9,29.77,East,79,1.0,13.0,80,0.00,,,0.00,VWS V14.01,2013-03-18 07:49:00,
2013-03-18 02:54:00,29.3,23.9,29.77,NE,52,4.0,16.0,80,0.00,,,0.00,VWS V14.01,2013-03-18 07:54:00,
2013-03-18 02:59:00,29.4,24.0,29.77,ENE,77,0.0,16.0,80,0.00,,,0.00,VWS V14.01,2013-03-18 07:59:00,
2013-03-18 03:04:00,29.4,24.0,29.77,NNE,31,2.0,10.0,80,0.00,,,0.00,VWS V14.01,2013-03-18 08:04:00,
2013-03-18 03:09:00,29.4,24.0,29.77,ESE,113,0.0,11.0,80,0.00,,,0.00,VWS V14.01,2013-03-18 08:09:00,
2013-03-18 03:15:00,29.4,24.0,29.77,ESE,118,2.0,11.0,80,0.00,,,0.00,VWS V14.01,2013-03-18 08:15:00,
2013-03-18 03:20:00,29.4,24.0,29.76,East,97,2.0,16.0,80,0.00,,,0.00,VWS V14.01,2013-03-18 08:20:00,
2013-03-18 03:25:00,29.3,23.9,29.76,East,87,3.0,16.0,80,0.00,,,0.00,VWS V14.01,2013-03-18 08:25:00,
2013-03-18 03:30:00,29.2,23.8,29.76,SE,128,3.0,16.0,80,0.00,,,0.00,VWS V14.01,2013-03-18 08:30:00,
2013-03-18 03:35:00,29.2,23.8,29.76,ENE,59,4.0,12.0,80,0.00,,,0.00,VWS V14.01,2013-03-18 08:35:00,
2013-03-18 03:40:00,29.2,24.1,29.76,East,95,3.0,15.0,81,0.00,,,0.00,VWS V14.01,2013-03-18 08:40:00,
2013-03-18 03:45:00,29.1,24.0,29.77,NNE,12,5.0,15.0,81,0.00,,,0.00,VWS V14.01,2013-03-18 08:45:00,
2013-03-18 03:50:00,29.1,24.0,29.77,SE,129,1.0,15.0,81,0.00,,,0.00,VWS V14.01,2013-03-18 08:50:00,
2013-03-18 03:55:00,29.0,23.9,29.77,East,101,1.0,15.0,81,0.00,,,0.00,VWS V14.01,2013-03-18 08:55:00,
2013-03-18 04:00:00,28.9,24.1,29.76,NE,49,1.0,15.0,82,0.00,,,0.00,VWS V14.01,2013-03-18 09:00:00,
2013-03-18 04:05:00,28.6,24.4,29.76,ENE,73,3.0,6.0,84,0.00,,,0.00,VWS V14.01,2013-03-18 09:05:00,
2013-03-18 04:10:00,28.3,24.7,29.75,SSW,192,1.0,7.0,86,0.00,,,0.00,VWS V14.01,2013-03-18 09:10:00,
2013-03-18 04:15:00,28.0,24.6,29.75,ENE,73,2.0,9.0,87,0.00,,,0.00,VWS V14.01,2013-03-18 09:15:00,
2013-03-18 04:20:00,27.7,24.6,29.75,East,100,1.0,9.0,88,0.00,,,0.00,VWS V14.01,2013-03-18 09:20:00,
2013-03-18 04:25:00,27.5,24.7,29.75,East,100,8.0,9.0,89,0.01,,,0.01,VWS V14.01,2013-03-18 09:25:00,
2013-03-18 04:30:00,27.4,24.9,29.75,ENE,63,1.0,9.0,90,0.01,,,0.01,VWS V14.01,2013-03-18 09:30:00,
2013-03-18 04:35:00,27.2,24.7,29.74,East,98,2.0,8.0,90,0.01,,,0.01,VWS V14.01,2013-03-18 09:35:00,
2013-03-18 04:40:00,27.1,24.8,29.74,ESE,120,3.0,8.0,91,0.01,,,0.01,VWS V14.01,2013-03-18 09:40:00,
2013-03-18 04:45:00,27.0,25.0,29.74,East,88,3.0,8.0,92,0.02,,,0.02,VWS V14.01,2013-03-18 09:45:00,
2013-03-18 04:50:00,27.0,25.0,29.74,East,89,0.0,8.0,92,0.02,,,0.02,VWS V14.01,2013-03-18 09:50:00,
2013-03-18 04:55:00,26.9,24.9,29.73,ENE,72,2.0,8.0,92,0.02,,,0.02,VWS V14.01,2013-03-18 09:55:00,
2013-03-18 05:01:00,26.9,24.9,29.73,ENE,62,2.0,8.0,92,0.02,,,0.02,VWS V14.01,2013-03-18 10:01:00,
2013-03-18 05:06:00,26.9,24.9,29.73,SE,141,1.0,7.0,92,0.02,,,0.02,VWS V14.01,2013-03-18 10:06:00,
2013-03-18 05:11:00,26.8,24.8,29.72,ENE,70,2.0,7.0,92,0.03,,,0.03,VWS V14.01,2013-03-18 10:11:00,
2013-03-18 05:16:00,26.8,25.0,29.72,East,96,1.0,9.0,93,0.03,,,0.03,VWS V14.01,2013-03-18 10:16:00,
2013-03-18 05:22:00,26.7,25.0,29.72,East,97,3.0,9.0,93,0.03,,,0.03,VWS V14.01,2013-03-18 10:22:00,
2013-03-18 05:27:00,26.7,25.0,29.72,NW,316,2.0,9.0,93,0.03,,,0.03,VWS V14.01,2013-03-18 10:27:00,
2013-03-18 05:32:00,26.7,25.0,29.72,ESE,102,4.0,4.0,93,0.02,,,0.03,VWS V14.01,2013-03-18 10:32:00,
2013-03-18 05:37:00,26.7,25.0,29.72,ENE,64,0.0,5.0,93,0.02,,,0.03,VWS V14.01,2013-03-18 10:37:00,
2013-03-18 05:42:00,26.7,25.0,29.72,East,81,1.0,8.0,93,0.03,,,0.04,VWS V14.01,2013-03-18 10:42:00,
2013-03-18 05:47:00,26.7,25.0,29.72,ESE,115,0.0,8.0,93,0.03,,,0.04,VWS V14.01,2013-03-18 10:47:00,
2013-03-18 05:52:00,26.8,25.0,29.71,ENE,75,3.0,8.0,93,0.03,,,0.04,VWS V14.01,2013-03-18 10:52:00,
2013-03-18 05:57:00,26.8,25.0,29.71,East,94,0.0,8.0,93,0.03,,,0.04,VWS V14.01,2013-03-18 10:57:00,
2013-03-18 06:02:00,26.8,25.0,29.71,ESE,114,1.0,5.0,93,0.02,,,0.04,VWS V14.01,2013-03-18 11:02:00,
2013-03-18 06:07:00,26.7,25.0,29.71,East,84,0.0,5.0,93,0.02,,,0.04,VWS V14.01,2013-03-18 11:07:00,
2013-03-18 06:12:00,26.8,25.0,29.70,ESE,104,4.0,5.0,93,0.03,,,0.05,VWS V14.01,2013-03-18 11:12:00,
2013-03-18 06:17:00,26.8,25.0,29.70,SE,126,1.0,6.0,93,0.03,,,0.05,VWS V14.01,2013-03-18 11:17:00,
2013-03-18 06:22:00,26.8,25.0,29.69,East,92,0.0,7.0,93,0.03,,,0.05,VWS V14.01,2013-03-18 11:22:00,
2013-03-18 06:27:00,26.9,25.1,29.69,ESE,111,2.0,7.0,93,0.04,,,0.06,VWS V14.01,2013-03-18 11:27:00,
2013-03-18 06:33:00,26.9,25.4,29.69,ESE,118,4.0,7.0,94,0.03,,,0.06,VWS V14.01,2013-03-18 11:33:00,
2013-03-18 06:38:00,27.0,25.5,29.69,SE,127,5.0,7.0,94,0.03,,,0.06,VWS V14.01,2013-03-18 11:38:00,
2013-03-18 06:43:00,27.0,25.5,29.68,East,97,1.0,7.0,94,0.04,,,0.07,VWS V14.01,2013-03-18 11:43:00,
2013-03-18 06:48:00,27.0,25.5,29.68,SSE,147,2.0,11.0,94,0.04,,,0.07,VWS V14.01,2013-03-18 11:48:00,
2013-03-18 06:53:00,27.0,25.5,29.68,ESE,103,0.0,11.0,94,0.04,,,0.07,VWS V14.01,2013-03-18 11:53:00,
2013-03-18 06:58:00,27.0,25.5,29.67,ESE,106,4.0,11.0,94,0.05,,,0.08,VWS V14.01,2013-03-18 11:58:00,
2013-03-18 07:03:00,27.1,25.6,29.67,ESE,112,0.0,5.0,94,0.04,,,0.08,VWS V14.01,2013-03-18 12:03:00,
2013-03-18 07:08:00,27.1,25.6,29.67,East,95,2.0,7.0,94,0.04,,,0.08,VWS V14.01,2013-03-18 12:08:00,
2013-03-18 07:13:00,27.1,25.6,29.67,SE,133,3.0,7.0,94,0.05,,,0.09,VWS V14.01,2013-03-18 12:13:00,
2013-03-18 07:18:00,27.1,25.6,29.67,South,191,2.0,7.0,94,0.05,,,0.09,VWS V14.01,2013-03-18 12:18:00,
2013-03-18 07:23:00,27.1,25.6,29.66,ESE,113,1.0,7.0,94,0.06,,,0.10,VWS V14.01,2013-03-18 12:23:00,
2013-03-18 07:28:00,27.1,25.6,29.66,ENE,60,0.0,7.0,94,0.06,,,0.10,VWS V14.01,2013-03-18 12:28:00,
2013-03-18 07:33:00,27.2,25.7,29.66,ESE,102,3.0,3.0,94,0.04,,,0.10,VWS V14.01,2013-03-18 12:33:00,
2013-03-18 07:38:00,27.3,25.8,29.66,East,88,0.0,5.0,94,0.05,,,0.11,VWS V14.01,2013-03-18 12:38:00,
2013-03-18 07:43:00,27.3,25.8,29.66,ENE,75,0.0,5.0,94,0.05,,,0.11,VWS V14.01,2013-03-18 12:43:00,
2013-03-18 07:48:00,27.4,25.9,29.66,WSW,243,0.0,5.0,94,0.05,,,0.11,VWS V14.01,2013-03-18 12:48:00,
2013-03-18 07:53:00,27.4,25.9,29.66,ENE,67,2.0,5.0,94,0.05,,,0.11,VWS V14.01,2013-03-18 12:53:00,
2013-03-18 07:59:00,27.5,26.0,29.65,NE,47,0.0,5.0,94,0.06,,,0.12,VWS V14.01,2013-03-18 12:59:00,
2013-03-18 08:04:00,27.6,26.1,29.65,East,93,0.0,2.0,94,0.04,,,0.12,VWS V14.01,2013-03-18 13:04:00,
2013-03-18 08:09:00,27.7,26.2,29.65,East,92,0.0,2.0,94,0.04,,,0.12,VWS V14.01,2013-03-18 13:09:00,
2013-03-18 08:14:00,27.8,26.3,29.65,East,82,0.0,2.0,94,0.05,,,0.13,VWS V14.01,2013-03-18 13:14:00,
2013-03-18 08:19:00,27.9,26.4,29.64,SW,221,2.0,5.0,94,0.05,,,0.13,VWS V14.01,2013-03-18 13:19:00,
2013-03-18 08:24:00,28.0,26.5,29.65,NW,314,0.0,5.0,94,0.05,,,0.13,VWS V14.01,2013-03-18 13:24:00,
2013-03-18 08:29:00,28.3,26.8,29.64,West,280,0.0,5.0,94,0.05,,,0.13,VWS V14.01,2013-03-18 13:29:00,
2013-03-18 08:34:00,28.5,27.0,29.64,SW,235,0.0,3.0,94,0.04,,,0.14,VWS V14.01,2013-03-18 13:34:00,
2013-03-18 08:39:00,28.7,27.2,29.64,SSW,201,0.0,3.0,94,0.04,,,0.14,VWS V14.01,2013-03-18 13:39:00,
2013-03-18 08:44:00,28.9,27.4,29.64,WSW,243,0.0,4.0,94,0.04,,,0.14,VWS V14.01,2013-03-18 13:44:00,
2013-03-18 08:49:00,29.1,27.6,29.64,SW,220,0.0,4.0,94,0.04,,,0.14,VWS V14.01,2013-03-18 13:49:00,
2013-03-18 08:55:00,29.2,27.7,29.64,North,359,0.0,4.0,94,0.04,,,0.14,VWS V14.01,2013-03-18 13:55:00,
2013-03-18 09:00:00,29.4,27.9,29.65,WNW,285,11.0,12.0,94,0.04,,,0.14,VWS V14.01,2013-03-18 14:00:00,
2013-03-18 09:05:00,29.0,26.7,29.64,West,267,7.0,13.0,91,0.02,,,0.14,VWS V14.01,2013-03-18 14:05:00,
2013-03-18 09:10:00,28.5,26.0,29.65,West,280,6.0,13.0,90,0.02,,,0.14,VWS V14.01,2013-03-18 14:10:00,
2013-03-18 09:15:00,27.7,24.9,29.65,West,267,3.0,16.0,89,0.02,,,0.14,VWS V14.01,2013-03-18 14:15:00,
2013-03-18 09:20:00,27.1,24.3,29.65,West,271,14.0,16.0,89,0.02,,,0.14,VWS V14.01,2013-03-18 14:20:00,
2013-03-18 09:25:00,26.5,23.7,29.65,WSW,249,6.0,16.0,89,0.02,,,0.14,VWS V14.01,2013-03-18 14:25:00,
2013-03-18 09:30:00,26.0,23.2,29.66,SSE,168,3.0,16.0,89,0.02,,,0.14,VWS V14.01,2013-03-18 14:30:00,
2013-03-18 09:35:00,25.5,22.7,29.66,West,277,4.0,16.0,89,0.02,,,0.15,VWS V14.01,2013-03-18 14:35:00,
2013-03-18 09:40:00,25.1,22.3,29.66,WSW,238,8.0,18.0,89,0.02,,,0.15,VWS V14.01,2013-03-18 14:40:00,
2013-03-18 09:45:00,24.7,21.9,29.66,West,270,11.0,18.0,89,0.02,,,0.15,VWS V14.01,2013-03-18 14:45:00,
2013-03-18 09:50:00,24.5,21.7,29.66,West,278,12.0,18.0,89,0.02,,,0.15,VWS V14.01,2013-03-18 14:50:00,
2013-03-18 09:55:00,24.3,21.5,29.67,WSW,251,4.0,18.0,89,0.02,,,0.15,VWS V14.01,2013-03-18 14:55:00,
2013-03-18 10:00:00,24.1,21.3,29.67,WSW,258,5.0,18.0,89,0.02,,,0.15,VWS V14.01,2013-03-18 15:00:00,
2013-03-18 10:06:00,23.8,21.0,29.67,WSW,241,9.0,12.0,89,0.02,,,0.16,VWS V14.01,2013-03-18 15:06:00,
2013-03-18 10:11:00,23.5,20.2,29.67,West,267,7.0,16.0,87,0.02,,,0.16,VWS V14.01,2013-03-18 15:11:00,
2013-03-18 10:16:00,22.8,19.2,29.68,WSW,251,6.0,16.0,86,0.02,,,0.16,VWS V14.01,2013-03-18 15:16:00,
2013-03-18 10:21:00,22.4,18.6,29.68,West,268,3.0,16.0,85,0.02,,,0.16,VWS V14.01,2013-03-18 15:21:00,
2013-03-18 10:26:00,22.2,18.4,29.68,SW,235,5.0,16.0,85,0.02,,,0.16,VWS V14.01,2013-03-18 15:26:00,
2013-03-18 10:31:00,22.2,18.1,29.68,WNW,284,3.0,7.0,84,0.01,,,0.16,VWS V14.01,2013-03-18 15:31:00,
2013-03-18 10:36:00,22.1,18.0,29.68,West,265,3.0,12.0,84,0.01,,,0.16,VWS V14.01,2013-03-18 15:36:00,
2013-03-18 10:42:00,22.0,17.9,29.68,WSW,247,4.0,12.0,84,0.01,,,0.16,VWS V14.01,2013-03-18 15:42:00,
2013-03-18 10:47:00,21.9,17.5,29.68,West,266,4.0,12.0,83,0.01,,,0.16,VWS V14.01,2013-03-18 15:47:00,
2013-03-18 10:52:00,21.9,17.5,29.69,SW,226,7.0,22.0,83,0.01,,,0.16,VWS V14.01,2013-03-18 15:52:00,
2013-03-18 10:57:00,21.8,17.4,29.68,WNW,287,8.0,22.0,83,0.01,,,0.16,VWS V14.01,2013-03-18 15:57:00,
2013-03-18 11:02:00,21.8,17.4,29.69,WSW,252,5.0,5.0,83,0.01,,,0.16,VWS V14.01,2013-03-18 16:02:00,
2013-03-18 11:07:00,21.9,17.0,29.69,West,270,7.0,18.0,81,0.01,,,0.16,VWS V14.01,2013-03-18 16:07:00,
2013-03-18 11:12:00,21.9,17.3,29.69,WSW,251,14.0,18.0,82,0.01,,,0.16,VWS V14.01,2013-03-18 16:12:00,
2013-03-18 11:17:00,21.8,16.9,29.69,West,268,9.0,18.0,81,0.01,,,0.16,VWS V14.01,2013-03-18 16:17:00,
2013-03-18 11:22:00,21.7,16.5,29.69,West,262,9.0,18.0,80,0.02,,,0.17,VWS V14.01,2013-03-18 16:22:00,
2013-03-18 11:27:00,21.7,15.9,29.69,West,280,6.0,18.0,78,0.02,,,0.17,VWS V14.01,2013-03-18 16:27:00,
2013-03-18 11:32:00,21.6,15.8,29.69,SW,224,5.0,14.0,78,0.01,,,0.17,VWS V14.01,2013-03-18 16:32:00,
2013-03-18 11:37:00,21.5,15.7,29.69,WSW,252,14.0,18.0,78,0.01,,,0.17,VWS V14.01,2013-03-18 16:37:00,
2013-03-18 11:43:00,21.4,15.6,29.70,West,279,6.0,25.0,78,0.01,,,0.17,VWS V14.01,2013-03-18 16:43:00,
2013-03-18 11:48:00,21.5,15.4,29.70,West,276,5.0,25.0,77,0.01,,,0.17,VWS V14.01,2013-03-18 16:48:00,
2013-03-18 11:53:00,21.6,15.8,29.70,West,271,8.0,25.0,78,0.02,,,0.18,VWS V14.01,2013-03-18 16:53:00,
2013-03-18 11:58:00,21.9,15.8,29.70,WSW,253,8.0,25.0,77,0.02,,,0.18,VWS V14.01,2013-03-18 16:58:00,
2013-03-18 12:03:00,21.8,15.7,29.70,SW,231,7.0,7.0,77,0.02,,,0.18,VWS V14.01,2013-03-18 17:03:00,
2013-03-18 12:08:00,21.9,15.8,29.70,SW,233,10.0,10.0,77,0.02,,,0.18,VWS V14.01,2013-03-18 17:08:00,
2013-03-18 12:13:00,21.8,16.0,29.71,West,262,6.0,17.0,78,0.02,,,0.18,VWS V14.01,2013-03-18 17:13:00,
2013-03-18 12:18:00,21.3,14.3,29.71,West,262,5.0,17.0,74,0.02,,,0.18,VWS V14.01,2013-03-18 17:18:00,
2013-03-18 12:23:00,21.3,14.9,29.71,WNW,282,5.0,17.0,76,0.02,,,0.18,VWS V14.01,2013-03-18 17:23:00,
2013-03-18 12:28:00,21.5,14.5,29.71,WNW,288,12.0,22.0,74,0.03,,,0.19,VWS V14.01,2013-03-18 17:28:00,
2013-03-18 12:33:00,20.9,13.9,29.71,SW,227,17.0,21.0,74,0.02,,,0.19,VWS V14.01,2013-03-18 17:33:00,
2013-03-18 12:38:00,20.8,13.8,29.71,WSW,257,11.0,23.0,74,0.02,,,0.19,VWS V14.01,2013-03-18 17:38:00,
2013-03-18 12:43:00,20.9,13.9,29.71,WSW,252,12.0,23.0,74,0.02,,,0.19,VWS V14.01,2013-03-18 17:43:00,
2013-03-18 12:48:00,20.9,13.9,29.71,West,272,8.0,23.0,74,0.02,,,0.19,VWS V14.01,2013-03-18 17:48:00,
2013-03-18 12:53:00,21.0,14.3,29.71,West,264,15.0,23.0,75,0.02,,,0.19,VWS V14.01,2013-03-18 17:53:00,
2013-03-18 12:58:00,20.8,13.8,29.71,South,189,8.0,23.0,74,0.02,,,0.19,VWS V14.01,2013-03-18 17:58:00,
2013-03-18 13:04:00,20.9,14.2,29.71,SW,224,8.0,14.0,75,0.01,,,0.19,VWS V14.01,2013-03-18 18:04:00,
2013-03-18 13:09:00,21.2,14.2,29.71,WSW,256,25.0,25.0,74,0.01,,,0.19,VWS V14.01,2013-03-18 18:09:00,
2013-03-18 13:14:00,20.9,13.6,29.71,NW,308,7.0,25.0,73,0.01,,,0.19,VWS V14.01,2013-03-18 18:14:00,
2013-03-18 13:19:00,20.6,13.6,29.71,West,259,5.0,25.0,74,0.01,,,0.19,VWS V14.01,2013-03-18 18:19:00,
2013-03-18 13:24:00,20.8,13.5,29.71,WSW,258,12.0,25.0,73,0.01,,,0.19,VWS V14.01,2013-03-18 18:24:00,
2013-03-18 13:29:00,20.4,13.4,29.71,NW,308,8.0,25.0,74,0.01,,,0.19,VWS V14.01,2013-03-18 18:29:00,
2013-03-18 13:34:00,20.0,13.7,29.72,WSW,255,16.0,20.0,76,0.00,,,0.19,VWS V14.01,2013-03-18 18:34:00,
2013-03-18 13:39:00,19.4,13.1,29.71,West,270,5.0,23.0,76,0.00,,,0.19,VWS V14.01,2013-03-18 18:39:00,
2013-03-18 13:44:00,19.3,13.3,29.71,SW,235,9.0,23.0,77,0.00,,,0.19,VWS V14.01,2013-03-18 18:44:00,
2013-03-18 13:49:00,19.1,13.4,29.71,West,266,4.0,23.0,78,0.00,,,0.19,VWS V14.01,2013-03-18 18:49:00,
2013-03-18 13:54:00,19.0,13.6,29.71,West,262,8.0,23.0,79,0.00,,,0.19,VWS V14.01,2013-03-18 18:54:00,
2013-03-18 13:59:00,18.9,13.2,29.71,West,266,6.0,23.0,78,0.00,,,0.19,VWS V14.01,2013-03-18 18:59:00,
2013-03-18 14:04:00,19.0,12.1,29.71,West,278,16.0,16.0,74,0.00,,,0.19,VWS V14.01,2013-03-18 19:04:00,
2013-03-18 14:09:00,18.9,11.7,29.71,WSW,241,16.0,21.0,73,0.00,,,0.19,VWS V14.01,2013-03-18 19:09:00,
2013-03-18 14:14:00,18.7,11.8,29.71,South,179,3.0,23.0,74,0.00,,,0.19,VWS V14.01,2013-03-18 19:14:00,
2013-03-18 14:20:00,18.7,11.5,29.71,WSW,249,11.0,23.0,73,0.00,,,0.19,VWS V14.01,2013-03-18 19:20:00,
2013-03-18 14:25:00,18.6,11.4,29.71,WSW,237,9.0,23.0,73,0.00,,,0.19,VWS V14.01,2013-03-18 19:25:00,
2013-03-18 14:30:00,18.6,11.4,29.71,WNW,287,8.0,23.0,73,0.00,,,0.19,VWS V14.01,2013-03-18 19:30:00,
2013-03-18 14:35:00,18.8,11.3,29.71,West,261,10.0,20.0,72,0.00,,,0.19,VWS V14.01,2013-03-18 19:35:00,
2013-03-18 14:40:00,18.7,11.2,29.71,WNW,291,13.0,20.0,72,0.00,,,0.19,VWS V14.01,2013-03-18 19:40:00,
2013-03-18 14:45:00,19.1,12.5,29.71,West,271,6.0,20.0,75,0.00,,,0.19,VWS V14.01,2013-03-18 19:45:00,
2013-03-18 14:50:00,19.0,11.5,29.71,West,267,13.0,22.0,72,0.00,,,0.19,VWS V14.01,2013-03-18 19:50:00,
2013-03-18 14:55:00,18.7,11.5,29.71,NW,320,8.0,22.0,73,0.00,,,0.19,VWS V14.01,2013-03-18 19:55:00,
2013-03-18 15:00:00,18.9,11.7,29.71,West,274,11.0,22.0,73,0.00,,,0.19,VWS V14.01,2013-03-18 20:00:00,
2013-03-18 15:05:00,19.0,11.8,29.72,WNW,297,6.0,19.0,73,0.00,,,0.19,VWS V14.01,2013-03-18 20:05:00,
2013-03-18 15:10:00,19.0,11.5,29.71,WSW,240,6.0,23.0,72,0.00,,,0.19,VWS V14.01,2013-03-18 20:10:00,
2013-03-18 15:15:00,19.0,11.8,29.72,SW,235,19.0,23.0,73,0.00,,,0.19,VWS V14.01,2013-03-18 20:15:00,
2013-03-18 15:20:00,18.9,11.7,29.71,West,273,11.0,23.0,73,0.00,,,0.19,VWS V14.01,2013-03-18 20:20:00,
2013-03-18 15:25:00,18.7,11.8,29.72,West,278,13.0,23.0,74,0.00,,,0.19,VWS V14.01,2013-03-18 20:25:00,
2013-03-18 15:30:00,18.9,11.7,29.72,WNW,285,8.0,23.0,73,0.00,,,0.19,VWS V14.01,2013-03-18 20:30:00,
2013-03-18 15:36:00,19.0,11.8,29.72,WSW,239,12.0,18.0,73,0.00,,,0.19,VWS V14.01,2013-03-18 20:36:00,
2013-03-18 15:40:00,19.0,11.5,29.72,West,280,6.0,24.0,72,0.00,,,0.19,VWS V14.01,2013-03-18 20:40:00,
2013-03-18 15:46:00,18.9,11.7,29.72,West,276,5.0,24.0,73,0.00,,,0.19,VWS V14.01,2013-03-18 20:46:00,
2013-03-18 15:51:00,19.0,12.1,29.72,WSW,250,10.0,24.0,74,0.00,,,0.19,VWS V14.01,2013-03-18 20:51:00,
2013-03-18 15:56:00,18.6,11.7,29.72,WSW,255,6.0,24.0,74,0.00,,,0.19,VWS V14.01,2013-03-18 20:56:00,
2013-03-18 16:01:00,18.4,11.5,29.72,West,266,10.0,24.0,74,0.00,,,0.19,VWS V14.01,2013-03-18 21:01:00,
2013-03-18 16:06:00,18.2,11.3,29.72,WNW,285,10.0,21.0,74,0.00,,,0.19,VWS V14.01,2013-03-18 21:06:00,
2013-03-18 16:11:00,18.1,11.2,29.72,West,274,8.0,21.0,74,0.00,,,0.19,VWS V14.01,2013-03-18 21:11:00,
2013-03-18 16:16:00,18.0,11.4,29.72,WSW,245,4.0,21.0,75,0.00,,,0.19,VWS V14.01,2013-03-18 21:16:00,
2013-03-18 16:21:00,17.9,11.0,29.72,WSW,249,8.0,21.0,74,0.00,,,0.19,VWS V14.01,2013-03-18 21:21:00,
2013-03-18 16:27:00,17.9,11.0,29.72,West,274,3.0,25.0,74,0.00,,,0.19,VWS V14.01,2013-03-18 21:27:00,
2013-03-18 16:32:00,18.3,11.4,29.72,SW,231,15.0,15.0,74,0.00,,,0.19,VWS V14.01,2013-03-18 21:32:00,
2013-03-18 16:37:00,18.6,11.4,29.73,WSW,251,8.0,24.0,73,0.00,,,0.19,VWS V14.01,2013-03-18 21:37:00,
2013-03-18 16:42:00,18.6,11.4,29.73,SW,231,22.0,24.0,73,0.00,,,0.19,VWS V14.01,2013-03-18 21:42:00,
2013-03-18 16:47:00,18.3,10.5,29.73,West,278,5.0,24.0,71,0.00,,,0.19,VWS V14.01,2013-03-18 21:47:00,
2013-03-18 16:52:00,17.8,10.3,29.73,West,279,8.0,24.0,72,0.00,,,0.19,VWS V14.01,2013-03-18 21:52:00,
2013-03-18 16:57:00,17.5,10.6,29.74,West,280,7.0,24.0,74,0.00,,,0.19,VWS V14.01,2013-03-18 21:57:00,
2013-03-18 17:02:00,17.3,11.1,29.74,West,280,7.0,15.0,76,0.00,,,0.19,VWS V14.01,2013-03-18 22:02:00,
2013-03-18 17:07:00,17.2,11.2,29.74,SW,231,5.0,17.0,77,0.00,,,0.19,VWS V14.01,2013-03-18 22:07:00,
2013-03-18 17:12:00,17.2,11.5,29.74,West,270,17.0,23.0,78,0.00,,,0.19,VWS V14.01,2013-03-18 22:12:00,
2013-03-18 17:17:00,17.2,11.2,29.74,West,279,11.0,23.0,77,0.00,,,0.19,VWS V14.01,2013-03-18 22:17:00,
2013-03-18 17:22:00,17.1,10.9,29.74,West,268,14.0,23.0,76,0.00,,,0.19,VWS V14.01,2013-03-18 22:22:00,
2013-03-18 17:27:00,17.0,10.8,29.74,SW,226,10.0,23.0,76,0.00,,,0.19,VWS V14.01,2013-03-18 22:27:00,
2013-03-18 17:32:00,17.0,10.5,29.75,WNW,282,9.0,15.0,75,0.00,,,0.19,VWS V14.01,2013-03-18 22:32:00,
2013-03-18 17:37:00,16.9,10.7,29.75,WNW,294,7.0,21.0,76,0.00,,,0.19,VWS V14.01,2013-03-18 22:37:00,
2013-03-18 17:42:00,16.9,10.4,29.75,West,268,11.0,22.0,75,0.00,,,0.19,VWS V14.01,2013-03-18 22:42:00,
2013-03-18 17:48:00,16.7,10.5,29.75,WSW,242,19.0,22.0,76,0.00,,,0.19,VWS V14.01,2013-03-18 22:48:00,
2013-03-18 17:53:00,16.6,10.4,29.75,WNW,288,4.0,22.0,76,0.00,,,0.19,VWS V14.01,2013-03-18 22:53:00,
2013-03-18 17:58:00,16.5,10.3,29.75,WSW,252,15.0,22.0,76,0.00,,,0.19,VWS V14.01,2013-03-18 22:58:00,
2013-03-18 18:03:00,16.5,10.3,29.75,West,263,10.0,22.0,76,0.00,,,0.19,VWS V14.01,2013-03-18 23:03:00,
2013-03-18 18:08:00,16.6,10.7,29.75,WSW,246,5.0,22.0,77,0.00,,,0.19,VWS V14.01,2013-03-18 23:08:00,
2013-03-18 18:13:00,16.8,10.9,29.75,West,270,7.0,22.0,77,0.00,,,0.19,VWS V14.01,2013-03-18 23:13:00,
2013-03-18 18:18:00,16.8,11.4,29.75,SW,216,7.0,22.0,79,0.00,,,0.19,VWS V14.01,2013-03-18 23:18:00,
2013-03-18 18:23:00,16.9,11.5,29.75,WSW,245,13.0,22.0,79,0.00,,,0.19,VWS V14.01,2013-03-18 23:23:00,
2013-03-18 18:28:00,17.0,11.3,29.76,West,264,9.0,22.0,78,0.00,,,0.19,VWS V14.01,2013-03-18 23:28:00,
2013-03-18 18:33:00,17.0,11.3,29.76,West,281,9.0,18.0,78,0.00,,,0.19,VWS V14.01,2013-03-18 23:33:00,
2013-03-18 18:38:00,16.9,11.2,29.76,West,274,6.0,18.0,78,0.00,,,0.19,VWS V14.01,2013-03-18 23:38:00,
2013-03-18 18:43:00,16.7,11.1,29.76,West,278,4.0,18.0,78,0.00,,,0.19,VWS V14.01,2013-03-18 23:43:00,
2013-03-18 18:48:00,16.6,10.9,29.77,WNW,296,6.0,18.0,78,0.00,,,0.19,VWS V14.01,2013-03-18 23:48:00,
2013-03-18 18:53:00,16.5,11.1,29.77,West,264,8.0,19.0,79,0.00,,,0.19,VWS V14.01,2013-03-18 23:53:00,
2013-03-18 18:58:00,16.1,11.0,29.77,WNW,285,9.0,19.0,80,0.00,,,0.19,VWS V14.01,2013-03-18 23:58:00,
2013-03-18 19:03:00,15.9,11.1,29.77,WSW,249,6.0,12.0,81,0.00,,,0.19,VWS V14.01,2013-03-19 00:03:00,
2013-03-18 19:08:00,15.8,11.0,29.78,WNW,285,7.0,12.0,81,0.00,,,0.19,VWS V14.01,2013-03-19 00:08:00,
2013-03-18 19:14:00,15.6,10.5,29.78,WNW,283,6.0,16.0,80,0.00,,,0.19,VWS V14.01,2013-03-19 00:14:00,
2013-03-18 19:19:00,15.5,10.4,29.78,West,259,6.0,16.0,80,0.00,,,0.19,VWS V14.01,2013-03-19 00:19:00,
2013-03-18 19:24:00,15.3,9.7,29.78,WSW,240,4.0,18.0,78,0.00,,,0.19,VWS V14.01,2013-03-19 00:24:00,
2013-03-18 19:29:00,15.2,9.9,29.78,West,269,4.0,18.0,79,0.00,,,0.19,VWS V14.01,2013-03-19 00:29:00,
2013-03-18 19:34:00,15.0,9.7,29.79,WSW,251,9.0,21.0,79,0.00,,,0.19,VWS V14.01,2013-03-19 00:34:00,
2013-03-18 19:39:00,14.8,9.5,29.79,WNW,285,10.0,21.0,79,0.00,,,0.19,VWS V14.01,2013-03-19 00:39:00,
2013-03-18 19:44:00,14.7,9.1,29.79,West,274,10.0,21.0,78,0.00,,,0.19,VWS V14.01,2013-03-19 00:44:00,
2013-03-18 19:49:00,14.5,8.9,29.79,West,276,7.0,21.0,78,0.00,,,0.19,VWS V14.01,2013-03-19 00:49:00,
2013-03-18 19:54:00,14.4,8.8,29.79,West,264,12.0,21.0,78,0.00,,,0.19,VWS V14.01,2013-03-19 00:54:00,
2013-03-18 19:59:00,14.4,8.8,29.79,West,272,6.0,21.0,78,0.00,,,0.19,VWS V14.01,2013-03-19 00:59:00,
2013-03-18 20:04:00,14.3,8.7,29.80,WNW,283,3.0,20.0,78,0.00,,,0.19,VWS V14.01,2013-03-19 01:04:00,
2013-03-18 20:09:00,14.3,8.7,29.80,WNW,285,10.0,20.0,78,0.00,,,0.19,VWS V14.01,2013-03-19 01:09:00,
2013-03-18 20:14:00,14.2,8.6,29.80,West,266,7.0,24.0,78,0.00,,,0.19,VWS V14.01,2013-03-19 01:14:00,
2013-03-18 20:19:00,14.1,8.5,29.81,West,260,6.0,24.0,78,0.00,,,0.19,VWS V14.01,2013-03-19 01:19:00,
2013-03-18 20:24:00,14.1,8.5,29.80,West,274,7.0,24.0,78,0.00,,,0.19,VWS V14.01,2013-03-19 01:24:00,
2013-03-18 20:30:00,14.0,8.4,29.80,West,276,6.0,24.0,78,0.00,,,0.19,VWS V14.01,2013-03-19 01:30:00,
2013-03-18 20:35:00,13.9,8.3,29.81,SSW,208,13.0,20.0,78,0.00,,,0.19,VWS V14.01,2013-03-19 01:35:00,
2013-03-18 20:40:00,13.8,8.2,29.81,SW,220,10.0,20.0,78,0.00,,,0.19,VWS V14.01,2013-03-19 01:40:00,
2013-03-18 20:45:00,13.7,8.1,29.81,West,273,6.0,20.0,78,0.00,,,0.19,VWS V14.01,2013-03-19 01:45:00,
2013-03-18 20:50:00,13.7,7.8,29.81,WNW,285,8.0,20.0,77,0.00,,,0.19,VWS V14.01,2013-03-19 01:50:00,
2013-03-18 20:55:00,13.6,7.7,29.82,WSW,254,3.0,20.0,77,0.00,,,0.19,VWS V14.01,2013-03-19 01:55:00,
2013-03-18 21:00:00,13.5,7.9,29.82,WSW,248,7.0,20.0,78,0.00,,,0.19,VWS V14.01,2013-03-19 02:00:00,
2013-03-18 21:05:00,13.5,7.9,29.82,West,268,2.0,14.0,78,0.00,,,0.19,VWS V14.01,2013-03-19 02:05:00,
2013-03-18 21:10:00,13.4,7.8,29.82,WNW,288,11.0,22.0,78,0.00,,,0.19,VWS V14.01,2013-03-19 02:10:00,
2013-03-18 21:15:00,13.3,7.7,29.83,West,268,5.0,22.0,78,0.00,,,0.19,VWS V14.01,2013-03-19 02:15:00,
2013-03-18 21:20:00,13.2,7.6,29.83,West,275,10.0,22.0,78,0.00,,,0.19,VWS V14.01,2013-03-19 02:20:00,
2013-03-18 21:25:00,13.2,7.6,29.83,West,270,14.0,22.0,78,0.00,,,0.19,VWS V14.01,2013-03-19 02:25:00,
2013-03-18 21:30:00,13.1,7.8,29.84,WSW,256,9.0,22.0,79,0.00,,,0.19,VWS V14.01,2013-03-19 02:30:00,
2013-03-18 21:35:00,13.1,7.5,29.84,West,268,10.0,13.0,78,0.00,,,0.19,VWS V14.01,2013-03-19 02:35:00,
2013-03-18 21:40:00,13.1,7.5,29.84,West,263,6.0,25.0,78,0.00,,,0.19,VWS V14.01,2013-03-19 02:40:00,
2013-03-18 21:45:00,13.0,7.4,29.84,West,262,11.0,25.0,78,0.00,,,0.19,VWS V14.01,2013-03-19 02:45:00,
2013-03-18 21:50:00,13.0,7.4,29.84,West,276,5.0,25.0,78,0.00,,,0.19,VWS V14.01,2013-03-19 02:50:00,
2013-03-18 21:55:00,13.0,7.4,29.85,West,261,9.0,25.0,78,0.00,,,0.19,VWS V14.01,2013-03-19 02:55:00,
2013-03-18 22:01:00,13.0,7.4,29.85,NNW,343,4.0,25.0,78,0.00,,,0.19,VWS V14.01,2013-03-19 03:01:00,
2013-03-18 22:06:00,12.9,7.3,29.85,West,278,9.0,19.0,78,0.00,,,0.19,VWS V14.01,2013-03-19 03:06:00,
2013-03-18 22:11:00,12.8,7.0,29.85,West,266,4.0,19.0,77,0.00,,,0.19,VWS V14.01,2013-03-19 03:11:00,
2013-03-18 22:16:00,12.8,7.0,29.85,WNW,289,0.0,19.0,77,0.00,,,0.19,VWS V14.01,2013-03-19 03:16:00,
2013-03-18 22:21:00,12.7,7.2,29.86,WNW,285,9.0,19.0,78,0.00,,,0.19,VWS V14.01,2013-03-19 03:21:00,
2013-03-18 22:27:00,12.7,7.2,29.86,WNW,287,6.0,19.0,78,0.00,,,0.19,VWS V14.01,2013-03-19 03:27:00,
2013-03-18 22:32:00,12.6,7.1,29.86,West,281,8.0,12.0,78,0.00,,,0.19,VWS V14.01,2013-03-19 03:32:00,
2013-03-18 22:37:00,12.5,7.0,29.86,West,272,7.0,16.0,78,0.00,,,0.19,VWS V14.01,2013-03-19 03:37:00,
2013-03-18 22:42:00,12.3,6.5,29.86,WNW,284,13.0,16.0,77,0.00,,,0.19,VWS V14.01,2013-03-19 03:42:00,
2013-03-18 22:47:00,12.2,6.4,29.86,West,280,7.0,17.0,77,0.00,,,0.19,VWS V14.01,2013-03-19 03:47:00,
2013-03-18 22:52:00,12.1,6.3,29.87,WNW,287,6.0,17.0,77,0.00,,,0.19,VWS V14.01,2013-03-19 03:52:00,
2013-03-18 22:57:00,12.1,6.3,29.87,WNW,291,4.0,17.0,77,0.00,,,0.19,VWS V14.01,2013-03-19 03:57:00,
2013-03-18 23:00:00,12.0,6.2,29.87,WNW,291,6.0,17.0,77,0.00,,,0.19,VWS V14.01,2013-03-19 04:00:00,
2013-03-18 23:05:00,11.9,6.1,29.87,WNW,289,8.0,21.0,77,0.00,,,0.19,VWS V14.01,2013-03-19 04:05:00,
2013-03-18 23:10:00,11.8,6.0,29.87,West,272,13.0,21.0,77,0.00,,,0.19,VWS V14.01,2013-03-19 04:10:00,
2013-03-18 23:15:00,11.7,5.9,29.87,WSW,239,16.0,21.0,77,0.00,,,0.19,VWS V14.01,2013-03-19 04:15:00,
2013-03-18 23:20:00,11.6,5.8,29.87,West,270,10.0,21.0,77,0.00,,,0.19,VWS V14.01,2013-03-19 04:20:00,
2013-03-18 23:25:00,11.5,5.7,29.87,West,269,7.0,21.0,77,0.00,,,0.19,VWS V14.01,2013-03-19 04:25:00,
2013-03-18 23:31:00,11.4,5.6,29.87,West,268,7.0,21.0,77,0.00,,,0.19,VWS V14.01,2013-03-19 04:31:00,
2013-03-18 23:36:00,11.4,5.3,29.87,West,268,13.0,15.0,76,0.00,,,0.19,VWS V14.01,2013-03-19 04:36:00,
2013-03-18 23:41:00,11.3,5.2,29.87,West,266,9.0,15.0,76,0.00,,,0.19,VWS V14.01,2013-03-19 04:41:00,
2013-03-18 23:46:00,11.2,5.1,29.88,WNW,283,10.0,15.0,76,0.00,,,0.19,VWS V14.01,2013-03-19 04:46:00,
2013-03-18 23:51:00,11.1,5.0,29.87,West,260,10.0,15.0,76,0.00,,,0.19,VWS V14.01,2013-03-19 04:51:00,
2013-03-18 23:56:00,11.1,5.0,29.88,West,274,9.0,15.0,76,0.00,,,0.19,VWS V14.01,2013-03-19 04:56:00,